This demonstration page uses our WeatherBlox Daily Observations layout. Learn more.

Left ArrowRight Arrow

Hourly Observations for October 29, 2015

Temp ( °F °C ) Dew Point ( °F °C ) Humidity (%) Winds ( mph kmh ) Pressure ( in mb ) Visibility ( mi km ) Precip ( " mm )
12:15 am 00:15 Cloudy 68 20 68 20 100 100 SSW 3 6 29.65 1004 10 16 N/A
12:35 am 00:35 Cloudy with Light Rain 68 20 68 20 100 100 S 3 6 29.62 1003 10 16 N/A
12:55 am 00:55 Cloudy 68 20 68 20 100 100 N N/A 29.62 1003 10 16 N/A
1:15 am 01:15 Cloudy 68 20 68 20 100 100 N N/A 29.62 1003 10 16 N/A
1:35 am 01:35 Cloudy 68 20 68 20 100 100 S 3 6 29.62 1003 10 16 N/A
1:55 am 01:55 Cloudy 66 19 66 19 100 100 N N/A 29.62 1003 7 11 N/A
2:15 am 02:15 Cloudy with Mist and Fog 64 18 64 18 100 100 N N/A 29.62 1003 1 2 N/A
2:35 am 02:35 Cloudy with Mist and Fog 64 18 64 18 100 100 N N/A 29.62 1003 1 1 N/A
2:55 am 02:55 Cloudy 64 18 64 18 100 100 N N/A 29.62 1003 10 16 N/A
3:15 am 03:15 Cloudy 64 18 64 18 100 100 N N/A 29.62 1003 10 16 N/A
3:35 am 03:35 Cloudy 64 18 64 18 100 100 SW 6 9 29.62 1003 10 16 N/A
3:55 am 03:55 Cloudy 64 18 64 18 100 100 W 5 7 29.62 1003 10 16 N/A
4:15 am 04:15 Partly Cloudy 64 18 64 18 100 100 N N/A 29.62 1003 7 11 N/A
4:35 am 04:35 Clear with Mist and Fog 63 17 63 17 100 100 N N/A 29.62 1003 2 3 N/A
4:55 am 04:55 Partly Cloudy with Mist and Fog 63 17 63 17 100 100 N N/A 29.62 1003 1 2 N/A
5:15 am 05:15 Mostly Cloudy with Mist and Fog 63 17 63 17 100 100 N N/A 29.62 1003 1 2 N/A
5:35 am 05:35 Mostly Cloudy with Mist and Fog 61 16 61 16 100 100 SW 3 6 29.62 1003 1 2 N/A
5:55 am 05:55 Mostly Cloudy with Mist and Fog 61 16 61 16 100 100 N N/A 29.62 1003 2 3 N/A
6:15 am 06:15 Mostly Cloudy with Mist and Fog 59 15 59 15 100 100 S 6 9 29.65 1004 1 2 N/A
6:35 am 06:35 Mostly Cloudy with Mist and Fog 59 15 59 15 100 100 S 6 9 29.65 1004 1 1 N/A
6:55 am 06:55 Partly Cloudy 59 15 59 15 100 100 SSW 8 13 29.65 1004 10 16 N/A
7:15 am 07:15 Clear 59 15 59 15 100 100 S 7 11 29.65 1004 10 16 N/A
7:35 am 07:35 Partly Cloudy with Mist and Fog 59 15 59 15 100 100 S 7 11 29.65 1004 3 4 N/A
7:55 am 07:55 Cloudy with Fog 59 15 59 15 100 100 S 7 11 29.65 1004 5 8 N/A
8:15 am 08:15 Cloudy with Fog 59 15 59 15 100 100 SSW 9 15 29.68 1005 0 0 N/A
8:35 am 08:35 Cloudy with Fog 59 15 59 15 100 100 N N/A 29.68 1005 0 0 N/A
8:55 am 08:55 Partly Cloudy 61 16 61 16 100 100 N N/A 29.71 1006 10 16 N/A
9:15 am 09:15 Partly Cloudy 61 16 61 16 100 100 WSW 3 6 29.71 1006 10 16 N/A
9:35 am 09:35 Mostly Cloudy 63 17 63 17 100 100 WSW 5 7 29.71 1006 10 16 N/A
9:55 am 09:55 Mostly Cloudy 63 17 63 17 100 100 W 13 20 29.74 1007 10 16 N/A
10:15 am 10:15 Mostly Cloudy 64 18 61 16 88 88 NW 7 11 29.74 1007 10 16 N/A
10:35 am 10:35 Partly Cloudy 64 18 61 16 88 88 N N/A 29.74 1007 10 16 N/A
10:55 am 10:55 Sunny 66 19 59 15 78 78 WNW 16 26 29.74 1007 10 16 N/A
11:15 am 11:15 Partly Cloudy 68 20 59 15 73 73 WNW 16 26 29.74 1007 10 16 N/A
11:35 am 11:35 Mostly Cloudy 66 19 50 10 56 56 NW 13 20 29.74 1007 10 16 N/A
11:55 am 11:55 Partly Cloudy 66 19 48 9 52 52 NW 17 28 29.74 1007 10 16 N/A
12:15 pm 12:15 Sunny 66 19 46 8 49 49 WNW 20 31 29.74 1007 10 16 N/A
12:35 pm 12:35 Sunny 66 19 46 8 49 49 WNW 17 28 29.74 1007 10 16 N/A
12:55 pm 12:55 Sunny 66 19 45 7 46 46 NW 12 19 29.74 1007 10 16 N/A
1:15 pm 13:15 Sunny 66 19 46 8 49 49 W 14 22 29.74 1007 10 16 N/A
1:35 pm 13:35 Sunny 68 20 45 7 43 43 WNW 6 9 29.74 1007 10 16 N/A
1:55 pm 13:55 Sunny 68 20 46 8 46 46 WNW 3 6 29.71 1006 10 16 N/A
2:15 pm 14:15 Sunny 68 20 46 8 46 46 W 10 17 29.71 1006 10 16 N/A
2:35 pm 14:35 Sunny 68 20 46 8 46 46 W 10 17 29.71 1006 10 16 N/A
2:55 pm 14:55 Sunny 68 20 46 8 46 46 W 9 15 29.71 1006 10 16 N/A
3:15 pm 15:15 Sunny 66 19 46 8 49 49 W 10 17 29.71 1006 10 16 N/A
3:35 pm 15:35 Sunny 66 19 41 5 40 40 WNW 20 31 29.71 1006 10 16 N/A
3:55 pm 15:55 Sunny 68 20 41 5 38 38 W 15 24 29.71 1006 10 16 N/A
4:15 pm 16:15 Sunny 66 19 43 6 43 43 W 12 19 29.71 1006 10 16 N/A
4:35 pm 16:35 Sunny 64 18 43 6 46 46 W 9 15 29.71 1006 10 16 N/A
4:55 pm 16:55 Sunny 64 18 43 6 46 46 WNW 9 15 29.71 1006 10 16 N/A
5:15 pm 17:15 Sunny 64 18 43 6 46 46 W 7 11 29.71 1006 10 16 N/A
5:35 pm 17:35 Sunny 64 18 45 7 49 49 WNW 6 9 29.71 1006 10 16 N/A
5:55 pm 17:55 Sunny 63 17 46 8 56 56 WNW 7 11 29.74 1007 10 16 N/A
6:15 pm 18:15 Clear 61 16 45 7 55 55 W 5 7 29.74 1007 10 16 N/A
6:35 pm 18:35 Clear 59 15 45 7 59 59 W 8 13 29.74 1007 10 16 N/A
6:55 pm 18:55 Clear 59 15 48 9 68 68 W 7 11 29.74 1007 10 16 N/A
7:15 pm 19:15 Clear 59 15 45 7 59 59 WNW 5 7 29.77 1008 10 16 N/A
7:35 pm 19:35 Clear 61 16 43 6 52 52 NW 7 11 29.77 1008 10 16 N/A
7:55 pm 19:55 Clear 55 13 45 7 67 67 WNW 9 15 29.77 1008 10 16 N/A
8:15 pm 20:15 Clear 57 14 43 6 59 59 WNW 9 15 29.77 1008 10 16 N/A
8:35 pm 20:35 Clear 55 13 43 6 63 63 WNW 8 13 29.80 1009 10 16 N/A
8:55 pm 20:55 Clear 55 13 43 6 63 63 WNW 6 9 29.80 1009 10 16 N/A
9:15 pm 21:15 Clear 54 12 43 6 67 67 W 5 7 29.80 1009 10 16 N/A
9:35 pm 21:35 Clear 55 13 45 7 67 67 SSW 3 6 29.80 1009 10 16 N/A
9:55 pm 21:55 Clear 55 13 45 7 67 67 N N/A 29.80 1009 10 16 N/A
10:15 pm 22:15 Clear 52 11 46 8 82 82 W 6 9 29.83 1010 10 16 N/A
10:35 pm 22:35 Clear 54 12 43 6 67 67 W 5 7 29.83 1010 10 16 N/A
10:55 pm 22:55 Clear 52 11 46 8 82 82 WNW 5 7 29.83 1010 10 16 N/A
11:15 pm 23:15 Clear 54 12 45 7 72 72 W 5 7 29.83 1010 10 16 N/A
11:35 pm 23:35 Clear 52 11 46 8 82 82 NW 3 6 29.85 1011 10 16 N/A
11:55 pm 23:55 Clear 52 11 43 6 72 72 NW 10 17 29.85 1011 10 16 N/A

Powered by AerisWeather